Perry, FL

10:28 PM EDT on July 29, 2016 (GMT -0400)
Perry

Weather History for K40J - December, 2012

Change the Weather History Date:

Friday, December 28, 2012

  Actual Average (KCTY) Record (KCTY)
Temperature  
Mean Temperature 50 °F 52 °F  
Max Temperature 68 °F 65 °F 84 °F (2015)
Min Temperature 33 °F 40 °F 19 °F (2010)
Degree Days  
Heating Degree Days 14 13  
Month to date heating degree days 299  
Since 1 July heating degree days 467  
Cooling Degree Days 0 0  
Month to date cooling degree days 14  
Year to date cooling degree days 2616  
Moisture  
Dew Point 37 °F    
Average Humidity 67    
Maximum Humidity 92    
Minimum Humidity 26    
Precipitation  
Precipitation 0.00 in 0.07 in 0.37 in (2000)
Month to date precipitation 2.31  
Year to date precipitation 48.15  
Sea Level Pressure  
Sea Level Pressure 30.03 in    
Wind  
Wind Speed 2 mph (SE)    
Max Wind Speed 10 mph    
Max Gust Speed -    
T = Trace of Precipitation, MM = Missing Value Source: NWS Daily Summary

Daily Weather History Graph

Daily Weather History Graph

Search for Another Location

Airport or City:

Trip Planner

Search our weather history database for the weather conditions in past years. The results will help you decide how hot, cold, wet, or windy it might be!

Date:

Astronomy

Dec. 28, 2012 Rise Set
Actual Time 7:29 AM EST 5:43 PM EST
Civil Twilight 7:02 AM EST 6:09 PM EST
Nautical Twilight 6:33 AM EST 6:39 PM EST
Astronomical Twilight 6:03 AM EST 7:08 PM EST
Moon 6:14 PM EST (12/28) 7:26 AM EST (12/28)
Length of Visible Light 11h 06m
Length of Day
10h 13m
Full, 100% of the Moon is Illuminated
Dec 28
Full
Jan 4
Last Quarter
Jan 11
New
Jan 18
First Quarter
Jan 26
Full

Hourly Weather History & Observations

Time (EST) Temp. Windchill Dew Point Humidity Pressure Visibility Wind Dir Wind Speed Gust Speed Precip Events Conditions
12:53 AM 33.1 °F - 30.0 °F 89% 30.09 in - Calm Calm - N/A   Unknown
1:53 AM 33.1 °F - 28.9 °F 85% 30.10 in - Calm Calm - N/A   Unknown
2:53 AM 33.1 °F - 30.0 °F 89% 30.10 in - Calm Calm - N/A   Unknown
3:53 AM 33.1 °F - 30.0 °F 89% 30.10 in - Calm Calm - N/A   Unknown
4:53 AM 33.1 °F - 30.0 °F 89% 30.11 in - Calm Calm - N/A   Unknown
5:53 AM 33.1 °F - 30.0 °F 89% 30.11 in - Calm Calm - N/A   Unknown
6:53 AM 33.1 °F - 30.0 °F 89% 30.12 in - Calm Calm - N/A   Unknown
7:53 AM 35.1 °F - 33.1 °F 92% 30.13 in - Calm Calm - N/A   Unknown
8:53 AM 39.0 °F - 36.0 °F 89% 30.13 in - Calm Calm - N/A   Unknown
9:53 AM 46.0 °F 44.8 °F 37.9 °F 73% 30.11 in - East 3.5 mph - N/A   Unknown
10:53 AM 52.0 °F - 39.9 °F 63% 30.11 in - ESE 4.6 mph - N/A   Unknown
11:53 AM 57.9 °F - 39.0 °F 49% 30.08 in - Variable 3.5 mph - N/A   Unknown
12:53 PM 63.0 °F - 36.0 °F 37% 30.01 in - SE 9.2 mph - N/A   Unknown
1:53 PM 64.9 °F - 36.0 °F 34% 29.96 in - SE 6.9 mph - N/A   Unknown
2:53 PM 68.0 °F - 32.0 °F 26% 29.95 in - SSE 10.4 mph - N/A   Unknown
3:53 PM 66.0 °F - 35.1 °F 32% 29.96 in - Calm Calm - N/A   Unknown
4:53 PM 62.1 °F - 43.0 °F 50% 29.96 in - SW 6.9 mph - N/A   Unknown
5:53 PM 57.9 °F - 43.0 °F 58% 29.98 in - Calm Calm - N/A   Unknown
6:53 PM 55.0 °F - 45.0 °F 69% 29.97 in - SE 3.5 mph - N/A   Unknown
7:53 PM 55.9 °F - 46.0 °F 69% 29.96 in - Calm Calm - N/A   Unknown
8:53 PM 57.9 °F - 43.0 °F 58% 29.93 in - SE 6.9 mph - N/A   Unknown
9:53 PM 60.1 °F - 41.0 °F 49% 29.91 in - ESE 5.8 mph - N/A   Unknown
10:53 PM 57.9 °F - 45.0 °F 62% 29.90 in - ESE 5.8 mph - N/A   Unknown
11:53 PM 57.0 °F - 46.9 °F 69% 29.87 in - ESE 5.8 mph - N/A   Unknown